{"data":{"norad_id":89183,"intl_designator":"","name":"UNKNOWN","alt_names":[],"object_type":"UNKNOWN","status":"UNKNOWN","operator":null,"country":null,"launch_date":null,"launch_site_code":null,"launch_vehicle":null,"mission":null,"orbit_class":"UNKNOWN","rcs_meters":null,"size_class":null,"mass_kg":null,"dimensions":null,"purposes":[],"wikipedia_slug":null,"has_3d_model":false,"image_url":null,"decayed_at":null,"tle_current":{"epoch":"2026-09-18T13:20:27.218112Z","epoch_age_seconds":182317,"freshness":"STALE","line1":"1 89183U          26261.55587058  .00000383  00000+0  37154-3 0  9995","line2":"2 89183  99.2060 171.2126 0130313 131.1271 230.1217 13.81882371645614","mean_motion":13.81882371,"eccentricity":0.0130313,"inclination_deg":99.206,"raan_deg":171.2126,"arg_perigee_deg":131.1271,"mean_anomaly_deg":230.1217,"bstar":0.00037154,"rev_number":64561,"period_min":104.20568568061,"perigee_km":861.62857138994,"apogee_km":1052.8069888827,"semimajor_km":7335.3547801363,"source":"CELESTRAK","updated_at":"2026-09-20T09:00:32.483407Z"}}}